Powrót do katalogu

THORAD AGENA D DEB

AktywnyPO
NORAD 42527·DEBRIS·🇺🇸 United States

Wystrzelony Apr 8, 1970 z Vandenberg Space Force Base

Loading…

Następne Przeloty (najbliższe 24 godziny)

TLE

Starzejące sięSource: Space-Track

Epoka: Sep 7, 2026, 16:47 UTC

1 42527U 70025SH  26250.69985692  .00004792  00000-0  14083-2 0  9993
2 42527  99.1345 214.9323 0024956  70.3820 290.0059 14.44066782663319

Śledź THORAD AGENA D DEB w czasie rzeczywistym z AllMySat

Download on the App Store